This is the latest recevied weather packets stored in our database for station/object W8KHW. If no packets are shown the sender has not sent any weather packets the latest 10 day(s).
| Time | Temp. | Humidity | Pressure | Rain* | Wind** | Luminosity | Snow |
|---|---|---|---|---|---|---|---|
| 1777864943 | 10° C | 74% | 1013.9 hPa | 0 mm | - | - | - |
| 1777864443 | 10.56° C | 73% | 1013.8 hPa | 0 mm | - | - | - |
| 1777863943 | 10° C | 75% | 1013.8 hPa | 0 mm | - | - | - |
| 1777863443 | 10° C | 76% | 1013.8 hPa | 0 mm | - | - | - |
| 1777862943 | 10° C | 75% | 1014 hPa | 0 mm | - | - | - |
| 1777862442 | 10.56° C | 75% | 1013.8 hPa | 0 mm | - | - | - |
| 1777861942 | 10.56° C | 72% | 1014.2 hPa | 0 mm | - | - | - |
| 1777861442 | 10.56° C | 73% | 1014.2 hPa | 0 mm | - | - | - |
| 1777860942 | 10° C | 74% | 1014.3 hPa | 0 mm | - | - | - |
| 1777860442 | 10° C | 75% | 1014.1 hPa | 0 mm | - | - | - |
| 1777859942 | 10° C | 75% | 1014.1 hPa | 0 mm | - | - | - |
| 1777859441 | 10° C | 74% | 1014.5 hPa | 0 mm | - | - | - |
| 1777858941 | 10° C | 74% | 1014 hPa | 0 mm | - | - | - |
| 1777858441 | 10° C | 74% | 1014.1 hPa | 0 mm | - | - | - |
| 1777857941 | 10° C | 74% | 1014.3 hPa | 0 mm | - | - | - |
| 1777857440 | 10° C | 76% | 1014.4 hPa | 0 mm | - | - | - |
| 1777856940 | 10° C | 74% | 1014.3 hPa | 0 mm | - | - | - |
| 1777856440 | 10° C | 74% | 1014.3 hPa | 0 mm | - | - | - |
| 1777855940 | 10° C | 74% | 1014 hPa | 0 mm | - | - | - |
| 1777855440 | 10° C | 73% | 1014 hPa | 0 mm | - | - | - |
| 1777854939 | 10° C | 73% | 1013.9 hPa | 0 mm | - | - | - |
| 1777854439 | 10° C | 75% | 1014.1 hPa | 0 mm | - | - | - |
| 1777853939 | 10° C | 76% | 1014.1 hPa | 0 mm | - | - | - |
| 1777853439 | 10.56° C | 75% | 1014.1 hPa | 0 mm | - | - | - |
| 1777852939 | 10.56° C | 74% | 1014.5 hPa | 0 mm | - | - | - |
* Rain latest hour (hover to see other rain measurements)
** Current wind speed in m/s (hover to see current wind gust speed)